Grub im Wienerwald
Wetterdaten: aktuell Dienstag, 20.08.2019 16:54
Datum Zeit Temp. A. Feuchte A. Luftdruck Regen Wind Richtung Richtung Sonnenschein UV Solar Taupunkt Windchill Windben
20.08.2019 16:54 30,7 C 53 % 1015,8 hPa 0,0 l/m 3,7 km/h O 94 3 min 2,0 UV-I 276 W/m 20,0 C 30,7 C 9,7 km/h
20.08.2019 16:51 30,6 C 54 % 1015,8 hPa 0,0 l/m 4,8 km/h O 85 3 min 2,5 UV-I 624 W/m 20,2 C 30,6 C 8,0 km/h
20.08.2019 16:48 30,6 C 53 % 1015,8 hPa 0,0 l/m 4,1 km/h O-NO 74 3 min 2,5 UV-I 613 W/m 19,9 C 30,6 C 11,3 km/h
20.08.2019 16:45 30,6 C 53 % 1015,8 hPa 0,0 l/m 6,3 km/h O 96 3 min 2,7 UV-I 654 W/m 19,9 C 30,6 C 11,3 km/h
20.08.2019 16:42 30,5 C 54 % 1015,9 hPa 0,0 l/m 6,4 km/h SO 140 3 min 2,8 UV-I 499 W/m 20,1 C 30,5 C 12,9 km/h
20.08.2019 16:39 30,4 C 53 % 1015,9 hPa 0,0 l/m 8,6 km/h S-SO 167 3 min 2,7 UV-I 422 W/m 19,7 C 30,2 C 14,5 km/h
20.08.2019 16:36 30,4 C 53 % 1016,0 hPa 0,0 l/m 6,7 km/h S-SO 155 3 min 2,6 UV-I 302 W/m 19,7 C 30,4 C 16,1 km/h
20.08.2019 16:33 30,5 C 52 % 1016,0 hPa 0,0 l/m 10,4 km/h S-SO 150 0 min 2,1 UV-I 258 W/m 19,5 C 30,2 C 16,1 km/h
20.08.2019 16:30 30,6 C 53 % 1016,1 hPa 0,0 l/m 3,5 km/h S-SO 160 0 min 2,4 UV-I 232 W/m 19,9 C 30,6 C 9,7 km/h
20.08.2019 16:27 30,5 C 53 % 1016,0 hPa 0,0 l/m 3,2 km/h S-SO 157 3 min 2,6 UV-I 677 W/m 19,8 C 30,5 C 8,0 km/h
20.08.2019 16:24 30,4 C 54 % 1016,1 hPa 0,0 l/m 5,7 km/h S 178 3 min 3,2 UV-I 671 W/m 20,0 C 30,4 C 11,3 km/h
20.08.2019 16:21 30,3 C 53 % 1016,2 hPa 0,0 l/m 6,5 km/h SO 146 3 min 3,5 UV-I 628 W/m 19,6 C 30,3 C 11,3 km/h
20.08.2019 16:18 30,2 C 53 % 1016,1 hPa 0,0 l/m 9,5 km/h S 182 3 min 3,6 UV-I 621 W/m 19,5 C 29,9 C 17,7 km/h
20.08.2019 16:15 30,2 C 53 % 1016,2 hPa 0,0 l/m 10,1 km/h S-SO 167 3 min 3,6 UV-I 663 W/m 19,5 C 29,9 C 17,7 km/h
20.08.2019 16:12 30,1 C 54 % 1016,2 hPa 0,0 l/m 6,5 km/h S-SO 163 3 min 3,6 UV-I 642 W/m 19,7 C 30,1 C 12,9 km/h
20.08.2019 16:09 30,0 C 53 % 1016,2 hPa 0,0 l/m 7,9 km/h S 191 3 min 3,4 UV-I 619 W/m 19,4 C 29,9 C 12,9 km/h
20.08.2019 16:06 29,9 C 55 % 1016,1 hPa 0,0 l/m 10,8 km/h SO 135 3 min 3,8 UV-I 605 W/m 19,9 C 29,5 C 22,5 km/h
20.08.2019 16:03 29,7 C 55 % 1016,1 hPa 0,0 l/m 6,6 km/h S-SO 149 3 min 3,9 UV-I 610 W/m 19,7 C 29,7 C 12,9 km/h
20.08.2019 16:00 29,6 C 56 % 1016,2 hPa 0,0 l/m 11,5 km/h S-SW 197 3 min 3,9 UV-I 552 W/m 19,9 C 29,1 C 19,3 km/h
20.08.2019 15:57 29,4 C 56 % 1016,2 hPa 0,0 l/m 8,9 km/h S-SO 165 3 min 4,1 UV-I 677 W/m 19,7 C 29,1 C 17,7 km/h
20.08.2019 15:54 29,4 C 55 % 1016,2 hPa 0,0 l/m 11,3 km/h SO 142 3 min 4,3 UV-I 744 W/m 19,4 C 28,9 C 22,5 km/h
20.08.2019 15:51 29,4 C 56 % 1016,2 hPa 0,0 l/m 6,0 km/h S-SO 157 0 min 3,4 UV-I 301 W/m 19,7 C 29,4 C 14,5 km/h
20.08.2019 15:48 29,4 C 54 % 1016,1 hPa 0,0 l/m 7,5 km/h S 186 0 min 3,0 UV-I 283 W/m 19,1 C 29,3 C 14,5 km/h
20.08.2019 15:45 29,6 C 55 % 1016,2 hPa 0,0 l/m 7,7 km/h SO 146 0 min 3,0 UV-I 281 W/m 19,6 C 29,5 C 17,7 km/h
20.08.2019 15:42 29,6 C 54 % 1016,2 hPa 0,0 l/m 10,7 km/h S-SO 157 3 min 3,6 UV-I 446 W/m 19,3 C 29,2 C 20,9 km/h
20.08.2019 15:39 29,7 C 53 % 1016,2 hPa 0,0 l/m 8,9 km/h S-SW 200 0 min 3,5 UV-I 345 W/m 19,1 C 29,5 C 12,9 km/h
20.08.2019 15:36 29,7 C 54 % 1016,2 hPa 0,0 l/m 9,2 km/h S-SO 158 3 min 3,8 UV-I 380 W/m 19,4 C 29,4 C 14,5 km/h
20.08.2019 15:33 29,6 C 54 % 1016,2 hPa 0,0 l/m 5,3 km/h SO 126 3 min 3,8 UV-I 394 W/m 19,3 C 29,6 C 17,7 km/h
20.08.2019 15:30 29,4 C 55 % 1016,3 hPa 0,0 l/m 8,0 km/h SO 126 3 min 5,2 UV-I 828 W/m 19,4 C 29,2 C 19,3 km/h
20.08.2019 15:27 29,3 C 54 % 1016,3 hPa 0,0 l/m 7,8 km/h O-SO 107 3 min 4,5 UV-I 608 W/m 19,0 C 29,1 C 14,5 km/h
20.08.2019 15:24 29,3 C 56 % 1016,3 hPa 0,0 l/m 8,9 km/h SO 131 3 min 4,1 UV-I 499 W/m 19,6 C 29,0 C 17,7 km/h
20.08.2019 15:21 29,3 C 55 % 1016,5 hPa 0,0 l/m 9,8 km/h SO 146 3 min 4,0 UV-I 461 W/m 19,3 C 28,9 C 17,7 km/h
20.08.2019 15:18 29,2 C 55 % 1016,4 hPa 0,0 l/m 12,6 km/h SO 144 3 min 3,9 UV-I 452 W/m 19,2 C 28,6 C 24,1 km/h
20.08.2019 15:15 29,2 C 56 % 1016,5 hPa 0,0 l/m 4,5 km/h S-SO 158 3 min 4,4 UV-I 585 W/m 19,5 C 29,2 C 12,9 km/h
20.08.2019 15:12 29,2 C 55 % 1016,5 hPa 0,0 l/m 9,1 km/h SO 141 3 min 4,0 UV-I 411 W/m 19,2 C 28,9 C 22,5 km/h
20.08.2019 15:09 29,1 C 54 % 1016,5 hPa 0,0 l/m 2,6 km/h SO 130 0 min 3,9 UV-I 362 W/m 18,8 C 29,1 C 9,7 km/h
20.08.2019 15:06 29,1 C 54 % 1016,5 hPa 0,0 l/m 6,2 km/h SO 130 3 min 4,0 UV-I 729 W/m 18,8 C 29,1 C 14,5 km/h
20.08.2019 15:03 28,9 C 56 % 1016,5 hPa 0,0 l/m 7,3 km/h S 175 3 min 5,0 UV-I 425 W/m 19,2 C 28,8 C 19,3 km/h
20.08.2019 15:00 28,7 C 55 % 1016,5 hPa 0,0 l/m 6,6 km/h SO 124 3 min 4,8 UV-I 786 W/m 18,7 C 28,7 C 17,7 km/h
20.08.2019 14:57 28,6 C 57 % 1016,5 hPa 0,0 l/m 12,0 km/h SO 133 3 min 5,3 UV-I 786 W/m 19,2 C 27,9 C 20,9 km/h
20.08.2019 14:54 28,3 C 57 % 1016,6 hPa 0,0 l/m 7,7 km/h SO 140 3 min 5,8 UV-I 689 W/m 18,9 C 28,1 C 16,1 km/h
20.08.2019 14:51 28,2 C 58 % 1016,6 hPa 0,0 l/m 5,8 km/h S-SO 153 3 min 5,4 UV-I 401 W/m 19,1 C 28,2 C 9,7 km/h
20.08.2019 14:48 28,1 C 57 % 1016,7 hPa 0,0 l/m 9,1 km/h S-SO 157 0 min 4,3 UV-I 371 W/m 18,8 C 27,7 C 17,7 km/h
20.08.2019 14:45 28,1 C 57 % 1016,6 hPa 0,0 l/m 4,9 km/h O-SO 113 0 min 4,5 UV-I 383 W/m 18,8 C 28,1 C 9,7 km/h
20.08.2019 14:42 28,0 C 57 % 1016,7 hPa 0,0 l/m 7,8 km/h O-SO 105 3 min 5,6 UV-I 573 W/m 18,7 C 27,8 C 17,7 km/h
20.08.2019 14:39 27,9 C 56 % 1016,8 hPa 0,0 l/m 4,3 km/h O 94 0 min 4,4 UV-I 355 W/m 18,3 C 27,9 C 11,3 km/h
20.08.2019 14:36 27,9 C 56 % 1016,8 hPa 0,0 l/m 6,3 km/h SO 126 0 min 3,6 UV-I 346 W/m 18,3 C 27,9 C 16,1 km/h
20.08.2019 14:33 28,0 C 57 % 1016,9 hPa 0,0 l/m 2,2 km/h S-SO 153 0 min 2,9 UV-I 278 W/m 18,7 C 28,0 C 8,0 km/h
20.08.2019 14:30 27,9 C 57 % 1016,9 hPa 0,0 l/m 5,1 km/h S-SW 194 0 min 2,6 UV-I 241 W/m 18,6 C 27,9 C 12,9 km/h
20.08.2019 14:27 27,9 C 57 % 1016,9 hPa 0,0 l/m 3,6 km/h SO 141 0 min 3,5 UV-I 323 W/m 18,6 C 27,9 C 8,0 km/h
20.08.2019 14:24 27,8 C 57 % 1016,9 hPa 0,0 l/m 4,5 km/h S-SO 148 0 min 4,0 UV-I 362 W/m 18,5 C 27,8 C 12,9 km/h
20.08.2019 14:21 27,7 C 58 % 1016,9 hPa 0,0 l/m 5,7 km/h S-SO 162 0 min 4,6 UV-I 420 W/m 18,7 C 27,7 C 14,5 km/h
20.08.2019 14:18 27,6 C 58 % 1016,8 hPa 0,0 l/m 6,7 km/h O-SO 107 3 min 4,6 UV-I 842 W/m 18,6 C 27,6 C 20,9 km/h
20.08.2019 14:15 27,4 C 57 % 1016,9 hPa 0,0 l/m 2,7 km/h O 95 3 min 5,2 UV-I 842 W/m 18,1 C 27,4 C 12,9 km/h
20.08.2019 14:12 27,3 C 56 % 1016,8 hPa 0,0 l/m 5,9 km/h O 98 3 min 6,8 UV-I 969 W/m 17,7 C 27,3 C 11,3 km/h
20.08.2019 14:09 27,3 C 56 % 1017,0 hPa 0,0 l/m 2,7 km/h SO 142 3 min 5,9 UV-I 921 W/m 17,7 C 27,3 C 6,4 km/h
20.08.2019 14:06 27,4 C 57 % 1016,9 hPa 0,0 l/m 3,9 km/h S 174 0 min 3,9 UV-I 336 W/m 18,1 C 27,4 C 11,3 km/h
20.08.2019 14:03 27,4 C 56 % 1017,0 hPa 0,0 l/m 1,0 km/h O-NO 76 0 min 3,0 UV-I 260 W/m 17,8 C 27,4 C 4,8 km/h
20.08.2019 14:00 27,6 C 56 % 1017,0 hPa 0,0 l/m 4,5 km/h O-NO 76 0 min 2,8 UV-I 211 W/m 18,0 C 27,6 C 8,0 km/h
20.08.2019 13:57 27,6 C 56 % 1017,0 hPa 0,0 l/m 2,3 km/h O-NO 75 0 min 3,1 UV-I 188 W/m 18,0 C 27,6 C 6,4 km/h
20.08.2019 13:54 27,7 C 56 % 1017,0 hPa 0,0 l/m 4,4 km/h O-NO 75 0 min 3,5 UV-I 207 W/m 18,1 C 27,7 C 8,0 km/h
20.08.2019 13:51 27,7 C 55 % 1017,0 hPa 0,0 l/m 1,5 km/h O 84 0 min 3,8 UV-I 202 W/m 17,8 C 27,7 C 4,8 km/h
20.08.2019 13:48 27,8 C 55 % 1017,1 hPa 0,0 l/m 3,8 km/h O 84 0 min 3,9 UV-I 216 W/m 17,9 C 27,8 C 11,3 km/h
20.08.2019 13:45 27,9 C 55 % 1017,1 hPa 0,0 l/m 4,8 km/h O 94 0 min 4,3 UV-I 225 W/m 18,0 C 27,9 C 11,3 km/h
20.08.2019 13:42 27,9 C 56 % 1017,1 hPa 0,0 l/m 2,4 km/h O 97 0 min 4,5 UV-I 274 W/m 18,3 C 27,9 C 12,9 km/h
20.08.2019 13:39 27,9 C 56 % 1017,1 hPa 0,0 l/m 1,2 km/h S-SO 150 0 min 6,8 UV-I 403 W/m 18,3 C 27,9 C 6,4 km/h
20.08.2019 13:36 28,0 C 55 % 1017,1 hPa 0,0 l/m 6,6 km/h S-SO 150 0 min 4,3 UV-I 323 W/m 18,1 C 28,0 C 11,3 km/h
20.08.2019 13:33 28,1 C 57 % 1017,2 hPa 0,0 l/m 4,4 km/h S-SO 153 0 min 4,3 UV-I 306 W/m 18,8 C 28,1 C 9,7 km/h
20.08.2019 13:30 28,1 C 55 % 1017,2 hPa 0,0 l/m 3,4 km/h S-SO 153 0 min 4,5 UV-I 299 W/m 18,2 C 28,1 C 9,7 km/h
20.08.2019 13:27 28,2 C 56 % 1017,3 hPa 0,0 l/m 6,4 km/h S-SO 149 0 min 4,7 UV-I 339 W/m 18,6 C 28,2 C 16,1 km/h
20.08.2019 13:24 28,2 C 56 % 1017,2 hPa 0,0 l/m 3,5 km/h S 175 0 min 4,6 UV-I 336 W/m 18,6 C 28,2 C 8,0 km/h
20.08.2019 13:21 28,3 C 56 % 1017,3 hPa 0,0 l/m 6,5 km/h S 182 0 min 4,5 UV-I 338 W/m 18,7 C 28,3 C 11,3 km/h
20.08.2019 13:18 28,4 C 55 % 1017,3 hPa 0,0 l/m 6,2 km/h S 172 0 min 4,3 UV-I 283 W/m 18,5 C 28,4 C 12,9 km/h
20.08.2019 13:15 28,6 C 56 % 1017,3 hPa 0,0 l/m 2,6 km/h SO 142 0 min 4,5 UV-I 269 W/m 18,9 C 28,6 C 8,0 km/h
20.08.2019 13:12 28,7 C 55 % 1017,3 hPa 0,0 l/m 3,7 km/h SO 142 0 min 4,5 UV-I 216 W/m 18,7 C 28,7 C 8,0 km/h
20.08.2019 13:09 28,7 C 56 % 1017,3 hPa 0,0 l/m 3,7 km/h SO 138 0 min 7,6 UV-I 290 W/m 19,0 C 28,7 C 9,7 km/h
20.08.2019 13:06 28,7 C 55 % 1017,4 hPa 0,0 l/m 7,2 km/h SO 136 0 min 5,2 UV-I 278 W/m 18,7 C 28,6 C 14,5 km/h
20.08.2019 13:03 28,8 C 56 % 1017,4 hPa 0,0 l/m 9,8 km/h SO 143 0 min 4,7 UV-I 199 W/m 19,1 C 28,4 C 20,9 km/h
20.08.2019 13:00 28,7 C 55 % 1017,5 hPa 0,0 l/m 3,8 km/h S-SO 165 3 min 7,4 UV-I 816 W/m 18,7 C 28,7 C 11,3 km/h
20.08.2019 12:57 28,7 C 57 % 1017,5 hPa 0,0 l/m 5,7 km/h S 181 3 min 7,7 UV-I 837 W/m 19,3 C 28,7 C 14,5 km/h
20.08.2019 12:54 28,7 C 55 % 1017,4 hPa 0,0 l/m 3,6 km/h S-SO 158 0 min 7,7 UV-I 257 W/m 18,7 C 28,7 C 14,5 km/h
20.08.2019 12:51 28,6 C 56 % 1017,5 hPa 0,0 l/m 4,5 km/h S 188 3 min 5,7 UV-I 803 W/m 18,9 C 28,6 C 12,9 km/h
20.08.2019 12:48 28,5 C 58 % 1017,6 hPa 0,0 l/m 8,0 km/h S 181 3 min 7,6 UV-I 803 W/m 19,4 C 28,3 C 20,9 km/h
20.08.2019 12:45 28,4 C 56 % 1017,5 hPa 0,0 l/m 2,3 km/h N-NO 25 3 min 7,7 UV-I 802 W/m 18,8 C 28,4 C 6,4 km/h
20.08.2019 12:42 28,3 C 57 % 1017,5 hPa 0,0 l/m 7,3 km/h N-NO 16 3 min 7,6 UV-I 791 W/m 18,9 C 28,2 C 12,9 km/h
20.08.2019 12:39 28,3 C 57 % 1017,6 hPa 0,0 l/m 3,3 km/h N-NO 29 3 min 6,5 UV-I 796 W/m 18,9 C 28,3 C 8,0 km/h
20.08.2019 12:36 28,3 C 56 % 1017,6 hPa 0,0 l/m 4,0 km/h N-NO 15 3 min 7,7 UV-I 809 W/m 18,7 C 28,3 C 9,7 km/h
20.08.2019 12:33 28,2 C 57 % 1017,7 hPa 0,0 l/m 2,8 km/h SW 225 3 min 6,6 UV-I 765 W/m 18,9 C 28,2 C 6,4 km/h
20.08.2019 12:30 28,1 C 58 % 1017,8 hPa 0,0 l/m 1,5 km/h S-SW 211 3 min 7,3 UV-I 800 W/m 19,0 C 28,1 C 4,8 km/h
20.08.2019 12:27 28,0 C 59 % 1017,8 hPa 0,0 l/m 1,3 km/h SW 220 3 min 7,5 UV-I 793 W/m 19,2 C 28,0 C 6,4 km/h
20.08.2019 12:24 27,8 C 61 % 1017,8 hPa 0,0 l/m 1,3 km/h SW 226 3 min 7,5 UV-I 788 W/m 19,6 C 27,8 C 4,8 km/h
_ Min-Zeit 03:21 17:42 18:06 - 18:27 - - - - - 17:42 03:21 18:27
Minimum _ 16,6 C 37 % 1014,4 hPa - 0,0 km/h - - - - - 14,0 C 16,6 C 0,0 km/h
_ Max-Zeit 17:00 08:39 07:30 19:54 15:18 - - 17:00 12:36 14:12 16:51 17:00 15:18
Maximum _ 31,0 C 98 % 1018,8 hPa 0,2 l/m 12,6 km/h
SO
- - 3 min 7,7 UV-I 969 W/m 20,2 C 31,0 C 24,1 km/h
SO
Durchschnitt _ 22,7 C 76 % 1017,1 hPa #1,6 l/m 2,3 km/h N - #5:33 h 4,2 UV-I 397 W/m 17,3 C 22,7 C 5,1 km/h
Schulla EDV